Jefferson, NC

7:45 AM EDT on August 18, 2019 (GMT -0400)
Ashe County

Weather History for KGEV - June, 2019

Change the Weather History Date:

Sunday, June 2, 2019

  Actual Average Record
Temperature  
Mean Temperature 64 °F -  
Max Temperature 75 °F 74 °F 82 °F (1978)
Min Temperature 53 °F 50 °F 34 °F (1966)
Degree Days  
Heating Degree Days 1    
Growing Degree Days 14 (Base 50)    
Moisture  
Dew Point 54 °F    
Average Humidity 71    
Maximum Humidity 99    
Minimum Humidity 44    
Precipitation  
Precipitation 0.09 in - - ()
Sea Level Pressure  
Sea Level Pressure 29.96 in    
Wind  
Wind Speed 5 mph (West)    
Max Wind Speed 14 mph    
Max Gust Speed 22 mph    
Visibility 10 miles    
Events Rain , Thunderstorm    
Averages and records for this station are not official NWS values.
T = Trace of Precipitation, MM = Missing Value Source: NWS Daily Summary

Daily Weather History Graph

Daily Weather History Graph

Search for Another Location

Airport or City:

Astronomy

Jun. 02, 2019 Rise Set
Actual Time 6:08 AM EDT 8:38 PM EDT
Civil Twilight 5:38 AM EDT 9:08 PM EDT
Nautical Twilight 5:01 AM EDT 9:45 PM EDT
Astronomical Twilight 4:20 AM EDT 10:27 PM EDT
Moon 5:44 AM EDT (6/2) 7:58 PM EDT (6/2)
Length of Visible Light 15h 29m
Length of Day
14h 29m
Waning Crescent, 1% of the Moon is Illuminated
Jun 2
Waning Crescent
Jun 3
New
Jun 10
First Quarter
Jun 17
Full
Jun 25
Last Quarter

Hourly Weather History & Observations

Time (EDT) Temp. Dew Point Humidity Pressure Visibility Wind Dir Wind Speed Gust Speed Precip Events Conditions
12:05 AM 61.7 °F 52.7 °F 72% 29.99 in 10.0 mi SW 3.5 mph - N/A   Clear
12:25 AM 58.1 °F 53.6 °F 85% 29.99 in 10.0 mi Calm Calm - N/A   Clear
12:45 AM 59.5 °F 52.9 °F 79% 29.99 in 10.0 mi Calm Calm - N/A   Mostly Cloudy
1:05 AM 57.6 °F 53.1 °F 85% 29.98 in 10.0 mi SW 3.5 mph - N/A   Overcast
1:25 AM 59.5 °F 52.9 °F 79% 29.97 in 10.0 mi WSW 4.6 mph - N/A   Mostly Cloudy
1:45 AM 57.7 °F 52.9 °F 84% 29.97 in 10.0 mi Calm Calm - N/A   Mostly Cloudy
2:05 AM 58.1 °F 52.7 °F 82% 29.96 in 10.0 mi Calm Calm - N/A   Mostly Cloudy
2:25 AM 57.4 °F 53.2 °F 86% 29.96 in 10.0 mi Calm Calm - N/A   Scattered Clouds
2:45 AM 53.8 °F 52.7 °F 96% 29.96 in 10.0 mi SSW 3.5 mph - N/A   Scattered Clouds
3:05 AM 56.8 °F 52.5 °F 85% 29.95 in 10.0 mi Calm Calm - N/A   Scattered Clouds
3:25 AM 55.9 °F 52.7 °F 89% 29.94 in 10.0 mi Calm Calm - N/A   Clear
3:45 AM 54.0 °F 52.2 °F 94% 29.93 in 10.0 mi Calm Calm - N/A   Clear
4:05 AM 53.6 °F 52.0 °F 94% 29.95 in 10.0 mi WSW 3.5 mph - N/A   Scattered Clouds
4:25 AM 55.0 °F 52.0 °F 89% 29.95 in 10.0 mi Calm Calm - N/A   Scattered Clouds
4:45 AM 54.7 °F 52.3 °F 92% 29.95 in 10.0 mi Calm Calm - N/A   Clear
5:05 AM 54.9 °F 52.2 °F 91% 29.95 in 10.0 mi SW 3.5 mph - N/A   Clear
5:25 AM 53.8 °F 52.0 °F 94% 29.94 in 10.0 mi Calm Calm - N/A   Clear
5:45 AM 53.8 °F 52.0 °F 94% 29.94 in 10.0 mi Calm Calm - N/A   Clear
6:05 AM 53.4 °F 51.4 °F 93% 29.95 in 10.0 mi Calm Calm - N/A   Clear
6:25 AM 54.9 °F 52.0 °F 90% 29.95 in 10.0 mi WSW 3.5 mph - N/A   Clear
6:45 AM 55.4 °F 51.8 °F 88% 29.95 in 10.0 mi SW 3.5 mph - N/A   Clear
7:05 AM 55.6 °F 52.2 °F 88% 29.95 in 10.0 mi Calm Calm - N/A   Clear
7:25 AM 57.9 °F 52.9 °F 83% 29.95 in 10.0 mi West 5.8 mph - N/A   Clear
7:45 AM 59.2 °F 52.7 °F 79% 29.96 in 10.0 mi WSW 3.5 mph - N/A   Clear
8:05 AM 63.1 °F 53.6 °F 71% 29.97 in 10.0 mi WNW 9.2 mph - N/A   Clear
8:45 AM 64.9 °F 53.8 °F 67% 29.97 in 10.0 mi WNW 10.4 mph - N/A   Clear
9:05 AM 65.3 °F 54.3 °F 68% 29.97 in 10.0 mi WNW 9.2 mph - N/A   Clear
9:25 AM 66.2 °F 54.1 °F 65% 29.98 in 10.0 mi West 12.7 mph 16.1 mph N/A   Clear
9:45 AM 66.7 °F 54.5 °F 65% 29.98 in 10.0 mi West 13.8 mph 20.7 mph N/A   Clear
10:05 AM 67.1 °F 54.1 °F 63% 29.97 in 10.0 mi West 13.8 mph 19.6 mph N/A   Clear
10:25 AM 67.3 °F 54.1 °F 63% 29.97 in 10.0 mi NW 6.9 mph - N/A   Scattered Clouds
10:45 AM 68.0 °F 54.1 °F 61% 29.97 in 10.0 mi WSW 8.1 mph - N/A   Mostly Cloudy
11:05 AM 68.7 °F 53.1 °F 57% 29.97 in 10.0 mi West 11.5 mph 18.4 mph N/A   Mostly Cloudy
11:25 AM 68.2 °F 52.9 °F 58% 29.97 in 10.0 mi West 8.1 mph 11.5 mph N/A   Overcast
11:45 AM 68.5 °F 53.6 °F 59% 29.97 in 10.0 mi West 9.2 mph - N/A   Overcast
12:05 PM 69.3 °F 53.6 °F 57% 29.98 in 10.0 mi West 10.4 mph 16.1 mph N/A   Overcast
12:25 PM 70.0 °F 54.0 °F 57% 29.98 in 10.0 mi West 11.5 mph 16.1 mph N/A   Overcast
12:45 PM 71.2 °F 52.7 °F 52% 29.97 in 10.0 mi West 8.1 mph - N/A   Overcast
1:05 PM 70.9 °F 53.1 °F 53% 29.97 in 10.0 mi West 11.5 mph 19.6 mph N/A   Mostly Cloudy
1:25 PM 72.9 °F 53.1 °F 50% 29.97 in 10.0 mi West 11.5 mph 18.4 mph N/A   Mostly Cloudy
1:45 PM 72.5 °F 51.6 °F 48% 29.96 in 10.0 mi WNW 10.4 mph 17.3 mph N/A   Mostly Cloudy
2:05 PM 73.0 °F 52.3 °F 48% 29.95 in 10.0 mi West 12.7 mph - N/A   Mostly Cloudy
2:25 PM 72.9 °F 53.1 °F 50% 29.95 in 10.0 mi WNW 5.8 mph - N/A   Mostly Cloudy
2:45 PM 74.5 °F 53.2 °F 47% 29.94 in 10.0 mi West 8.1 mph - N/A   Mostly Cloudy
3:05 PM 74.3 °F 51.6 °F 45% 29.94 in 10.0 mi West 11.5 mph - N/A   Mostly Cloudy
3:25 PM 75.0 °F 51.4 °F 44% 29.94 in 10.0 mi West 11.5 mph 17.3 mph N/A   Scattered Clouds
3:45 PM 74.8 °F 51.8 °F 44% 29.94 in 10.0 mi West 10.4 mph 17.3 mph N/A   Scattered Clouds
4:05 PM 74.8 °F 52.5 °F 46% 29.94 in 10.0 mi WNW 10.4 mph - N/A   Scattered Clouds
4:25 PM 75.2 °F 51.8 °F 44% 29.93 in 10.0 mi West 9.2 mph 18.4 mph N/A   Scattered Clouds
4:45 PM 74.5 °F 52.9 °F 47% 29.93 in 10.0 mi West 8.1 mph - N/A Thunderstorm Scattered Clouds
5:05 PM 74.3 °F 53.8 °F 49% 29.93 in 10.0 mi West 6.9 mph - N/A   Scattered Clouds
5:25 PM 74.7 °F 54.1 °F 49% 29.93 in 10.0 mi WNW 11.5 mph - N/A   Mostly Cloudy
5:45 PM 73.8 °F 53.6 °F 49% 29.93 in 10.0 mi West 9.2 mph - N/A   Mostly Cloudy
6:05 PM 74.1 °F 54.0 °F 49% 29.93 in 10.0 mi WSW 5.8 mph - N/A   Mostly Cloudy
6:25 PM 73.8 °F 54.0 °F 50% 29.92 in 10.0 mi WSW 6.9 mph - N/A   Scattered Clouds
6:45 PM 73.4 °F 54.3 °F 51% 29.93 in 10.0 mi West 6.9 mph - N/A   Clear
7:05 PM 72.7 °F 55.4 °F 55% 29.93 in 10.0 mi West 11.5 mph - N/A   Scattered Clouds
7:25 PM 72.0 °F 55.4 °F 56% 29.93 in 10.0 mi West 11.5 mph - N/A   Mostly Cloudy
7:45 PM 71.4 °F 55.6 °F 57% 29.94 in 10.0 mi West 12.7 mph - N/A   Overcast
8:05 PM 70.9 °F 56.3 °F 60% 29.95 in 10.0 mi West 11.5 mph 17.3 mph N/A   Mostly Cloudy
8:25 PM 70.0 °F 56.7 °F 63% 29.95 in 10.0 mi West 9.2 mph - N/A Thunderstorm Scattered Clouds
8:45 PM 66.2 °F 58.8 °F 77% 29.97 in 5.0 mi WNW 11.5 mph 20.7 mph 0.06 in   Mostly Cloudy
9:05 PM 61.3 °F 58.1 °F 89% 29.98 in 10.0 mi NNE 3.5 mph - N/A   Overcast
9:25 PM 60.6 °F 59.0 °F 94% 29.98 in 10.0 mi NNE 5.8 mph - N/A   Mostly Cloudy
9:45 PM 59.9 °F 58.1 °F 94% 29.99 in 10.0 mi North 9.2 mph - N/A   Mostly Cloudy
10:05 PM 59.7 °F 56.8 °F 90% 30.00 in 10.0 mi North 10.4 mph 21.9 mph N/A   Mostly Cloudy
10:25 PM 57.4 °F 55.8 °F 94% 30.00 in 7.0 mi NNW 4.6 mph - 0.02 in Rain Rain
10:45 PM 57.0 °F 55.8 °F 96% 30.01 in 7.0 mi NNE 3.5 mph - 0.03 in Rain , Thunderstorm Light Thunderstorms and Rain
11:05 PM 57.7 °F 56.3 °F 95% 30.01 in 10.0 mi Calm Calm - N/A   Overcast
11:25 PM 57.4 °F 57.0 °F 99% 30.00 in 7.0 mi Calm Calm - N/A   Overcast
11:45 PM 56.8 °F 56.7 °F 99% 29.99 in 2.0 mi Calm Calm - N/A   Mostly Cloudy